Location: Bois de la Silve
(44.4667°N, 6.7833°E)
Time: 20:58:06
(UTC+00:00)

CZ-4B R/B - Pass Details

Date: 14 July 2020
Orbit: 702 x 803 km, 98.9° (Epoch: 14 August)

Event Time Altitude Azimuth Distance (km) Brightness Sun altitude
Rises 02:18:55 0° 7° (N) 3,250 7.8 -14.5°
Reaches altitude 10° 02:21:21 10° 1° (N) 2,303 6.8 -14.2°
Maximum altitude 02:26:05 41° 292° (WNW) 1,071 4.1 -13.7°
Enters shadow 02:29:11 19° 232° (SW) 1,702 4.7 -13.3°
